Regional Weather Roundup
Issued by NWS

Home | Current Version | Previous Version | Text Only | Print | Product List | Glossary On
Versions: 1 2 3 4 5 6 7 8 9 10 11 12 13 14 15 16 17 18 19 20 21 22 23 24 25 26 27 28 29 30 31 32 33 34 35 36 37 38 39 40 41 42 43 44 45 46 47 48 49 50
000
ASUS45 KBOU 070107
RWRCO

WEATHER ROUNDUP FOR COLORADO
NATIONAL WEATHER SERVICE DENVER/BOULDER CO
700 PM MDT WED MAY 06 2015

NOTE: "FAIR" INDICATES FEW OR NO CLOUDS BELOW 12000 FEET WITH NO
SIGNIFICANT WEATHER AND/OR OBSTRUCTIONS TO VISIBILITY.

COZ001>005-013-030-031-070200-
...NORTHWEST COLORADO...

CITY           SKY/WX    TMP DP  RH WIND       PRES   REMARKS
CRAIG          CLOUDY    50  43  77 NE5       29.81S
HAYDEN         CLOUDY    48  41  76 N8        29.82S
MEEKER         CLOUDY    49  41  74 CALM      29.83R
MOUNT WERNER   NOT AVBL
STEAMBOAT SPGS CLOUDY    47  41  78 W3        29.83S
WALDEN         CLOUDY    43  36  75 SW14      29.85R
$$

COZ006>008-011-070200-
...WEST CENTRAL VALLEYS...

CITY           SKY/WX    TMP DP  RH WIND       PRES   REMARKS
GRAND JUNCTION TSTM      55  47  74 W12G23    29.78R
MONTROSE       PTSUNNY   58  41  53 NE8       29.81F
EAGLE          PTSUNNY   54  41  62 W10       29.85F
RIFLE          CLOUDY    51  44  77 E8        29.82F
DELTA          PTSUNNY   62  47  58 NE8       29.78F
NUCLA          PTSUNNY   59  41  51 E6        29.82F
$$

COZ017>023-064>068-070200-
...SOUTHWEST COLORADO...

CITY           SKY/WX    TMP DP  RH WIND       PRES   REMARKS
DURANGO        MOSUNNY   56  36  47 SW3       29.88S
CORTEZ         MOSUNNY   57  41  55 S14G23    29.84S
PAGOSA SPRINGS PTSUNNY   52  35  53 NW6       29.95R
TELLURIDE      PTSUNNY   47  34  61 S6        29.96F
WOLF CREEK PAS NOT AVBL
$$

COZ009-010-012-014-032>034-037-058>063-070200-
...CENTRAL COLORADO...

CITY           SKY/WX    TMP DP  RH WIND       PRES   REMARKS
ASPEN          PTSUNNY   49  39  68 N6        29.87F
BUENA VISTA    NOT AVBL
COPPER MTN     CLOUDY    36  30  80 W20G26    30.02R
BERTHOUD PASS  CLOUDY    28  21  74 NW24G33   30.01F WCI  14
COTTONWOOD PAS CLOUDY    45  32  61 NW9       29.92R
GUNNISON       MOSUNNY   46  37  71 NW7       29.91S
KREMMLING      CLOUDY    50  36  57 SW10G17   29.86R
LEADVILLE      CLOUDY    40  33  76 N9        29.93S
MONARCH PASS     N/A     32  30  93 MISG      30.10S
SALIDA         CLOUDY    57  32  37 W10       29.89F
SUNLIGHT       SNOW      34  34 100 CALM      29.99F VSB 1/4
WILKERSON PASS CLOUDY    34  32  93 SW10G16   30.00S WCI  26
$$

COZ069>075-070200-
...SAN LUIS VALLEY/SANGRE DE CRISTO MOUNTAINS...

CITY           SKY/WX    TMP DP  RH WIND       PRES   REMARKS
ALAMOSA        MOSUNNY   56  29  35 SW18      29.87R
LA VETA PASS   PTCLDY   N/A N/A N/A MISG      29.95R
SAGUACHE       CLOUDY    45  37  76 NE5       29.87R
$$

COZ035-036-038>040-070200-
...NORTHERN COLORADO FRONT RANGE...

CITY           SKY/WX    TMP DP  RH WIND       PRES   REMARKS
DENVER INTL AP LGT RAIN  54  48  80 S9        29.73R
DMNS CITY PARK   N/A     58  48  68 S2        29.72S
AURORA         LGT RAIN  55  51  85 E3        29.74R
FRONT RANGE AP CLOUDY    59  50  72 SW6       29.74R
ERIE MUNI ARPT CLOUDY    60  50  71 N5        29.71S
BOULDER MUN AP CLOUDY    59  52  77 CALM      29.72R
CENTENNIAL     CLOUDY    55  50  83 CALM      29.74R
BROOMFIELD     CLOUDY    57  50  77 SE8       29.74R
FORT COLLINS   CLOUDY    52  46  82 NE7       29.75R
LONGMONT       CLOUDY    61  49  64 W3        29.74R
$$

COZ041-046-047-076>085-087-088-070200-
...PIKES PEAK/PALMER DIVIDE AND SOUTHERN FOOTHILLS...

CITY           SKY/WX    TMP DP  RH WIND       PRES   REMARKS
COLO. SPRINGS  CLOUDY    52  47  83 W7        29.76S
A. F. ACADEMY  CLOUDY    50  49  97 CALM      29.76S
ELLICOTT       CLOUDY   N/A N/A N/A E10       29.72F
FALCON         CLOUDY    48  46  91 CALM      29.79F
FORT CARSON    CLEAR     52  47  83 N3        29.73F
LIMON          CLOUDY    54  48  80 SW9       29.73R
MONUMENT HILL  NOT AVBL
TRINIDAD       PTCLDY    66  36  32 W24G30    29.73S
$$

COZ042>045-048>051-090-091-070200-
...NORTHEAST COLORADO...

CITY           SKY/WX    TMP DP  RH WIND       PRES   REMARKS
GREELEY ARPT   CLOUDY    59  57  94 NW9       29.73R THUNDER
AKRON          MOCLDY    60  53  77 NW10      29.67R
BURLINGTON     PTCLDY    64  52  64 SW9       29.67R
WRAY           CLOUDY    65  55  69 W14       29.61R
STERLING       LGT RAIN  59  55  88 NW8       29.64R
HOLYOKE        NOT AVBL
FORT MORGAN    CLOUDY    56  47  71 N15G24    29.70R
$$

COZ086-089-092>099-070200-
...SOUTHEAST COLORADO...

CITY           SKY/WX    TMP DP  RH WIND       PRES   REMARKS
PUEBLO         CLOUDY    57  50  77 S3        29.68S
LA JUNTA       CLOUDY    57  48  72 N14       29.67S
LAMAR          HVY RAIN  54  48  80 NW21G35   29.69R
SPRINGFIELD      N/A     69  48  47 SW5       29.63S
$$


USA.gov is the U.S. government's official web portal to all federal, state and local government web resources and services.